Location: Unspecified
(0.0000°N, 0.0000°E)
Time: 16:51:11
(UTC+01:00)

Vanguard 1 - Visible Passes

Search period start: 09 February 2016 00:00
Search period end: 19 February 2016 00:00
Orbit: 650 x 3834 km, 34.2° (Epoch: 08 February)

Date Brightness Start Highest point End Pass type
(mag) Time Alt. Az. Time Alt. Az. Time Alt. Az.
09 Feb 11.7 19:33:08 10° SSW 19:42:08 30° SSE 19:47:42 10° E visible
09 Feb 11.5 21:56:53 10° WSW 22:00:50 29° W 22:00:50 29° W visible
10 Feb 13.0 05:12:29 10° NNE 05:15:52 12° NE 05:19:48 10° NE visible
10 Feb 11.0 19:54:07 10° SW 20:03:47 45° SSE 20:08:15 17° E visible
10 Feb 12.3 22:19:08 10° W 22:21:00 16° W 22:21:00 16° W visible
11 Feb 12.9 05:30:56 10° N 05:37:32 18° NE 05:46:40 10° ENE visible
11 Feb 10.3 20:15:20 10° SW 20:25:11 69° SE 20:28:26 29° ENE visible
12 Feb 12.8 05:50:38 10° NNW 05:58:55 26° NE 06:11:40 10° E visible
12 Feb 10.2 20:36:52 10° WSW 20:46:19 76° NW 20:48:38 40° NE visible
13 Feb 12.7 06:10:45 10° NNW 06:20:05 36° NE 06:35:42 10° ESE visible
13 Feb 10.7 20:58:50 10° WSW 21:07:13 46° NW 21:08:50 38° N visible
14 Feb 12.6 06:31:08 10° NNW 06:41:11 49° NE 06:58:58 10° ESE visible
14 Feb 11.4 21:21:18 10° W 21:28:02 27° NW 21:29:03 26° NNW visible
15 Feb 12.8 04:36:24 11° NNE 04:40:22 14° NE 04:45:58 10° ENE visible
15 Feb 12.1 21:44:40 10° W 21:48:52 16° NW 21:49:17 16° NW visible
16 Feb 12.5 04:56:32 14° N 05:01:34 22° NE 05:11:07 10° E visible
16 Feb 11.0 19:37:39 10° WSW 19:49:50 73° NW 19:56:19 10° NE visible
17 Feb 12.3 05:16:41 17° N 05:22:34 32° NE 05:35:03 10° E visible
17 Feb 11.4 19:59:49 10° WSW 20:10:46 48° NW 20:16:56 10° NNE visible
18 Feb 12.1 05:36:52 18° NNW 05:43:29 46° NE 05:58:12 10° ESE visible
18 Feb 12.0 20:22:32 10° WSW 20:31:35 31° NW 20:37:13 10° NNE visible
